Tracking 29591 objects as of 19-Sep-2024
HD Live streaming from Space Station
objects crossing your sky now

CHINASAT 4A

Track CHINASAT 4A now!
CHINASAT 4A is classified as:


NORAD ID: 60606
Int'l Code: 2024-151A
Perigee: 35,783.6 km
Apogee: 35,802.9 km
Inclination: 3.0 °
Period: 1,436.1 minutes
Semi major axis: 42164 km
RCS: Unknown
Launch date: August 22, 2024
Source: People's Republic of China (PRC)
Launch site: Wenchang Satellite Launch Center (WSC)
Your satellite tracking list
Your tracking list is empty




NASA's NSSDC Master Catalog

Two Line Element Set (TLE):
1 60606U 24151A   24262.54435084 -.00000375  00000-0  00000-0 0  9996
2 60606   2.9651 278.1649 0002290 345.0422  49.0177  1.00273394   370
Source of the keplerian elements: AFSPC